TimeIST,TemperatureF,Dew PointF,Humidity,Sea Level PressureIn,VisibilityMPH,Wind Direction,Wind SpeedMPH,Gust SpeedMPH,PrecipitationIn,Events,Conditions,WindDirDegrees,DateUTC
1:10 AM,64.4,53.6,68,29.95,1.2,Calm,Calm,-,N/A,,Haze,0,2012-11-13 19:40:00
2:10 AM,64.4,53.6,68,29.95,1.2,Calm,Calm,-,N/A,,Haze,0,2012-11-13 20:40:00
4:10 AM,66.2,53.6,64,29.92,1.9,Calm,Calm,-,N/A,,Haze,0,2012-11-13 22:40:00
5:10 AM,66.2,53.6,64,29.92,1.9,Calm,Calm,-,N/A,,Haze,0,2012-11-13 23:40:00
5:30 AM,59,56,87,29.95,1,Calm,Calm,,,,Haze,,2012-11-14 00:00:00
6:10 AM,60.8,55.4,82,29.95,1.9,Calm,Calm,-,N/A,,Haze,0,2012-11-14 00:40:00
7:10 AM,59.0,55.4,88,29.98,-9999.0,North,-9999.0,-,N/A,,Haze,0,2012-11-14 01:40:00
8:10 AM,66.2,59.0,78,29.98,-9999.0,North,-9999.0,-,N/A,,Haze,0,2012-11-14 02:40:00
8:30 AM,67,60,72,29.99,2,Calm,Calm,,,,,,2012-11-14 03:00:00
9:10 AM,73.4,57.2,57,30.01,-9999.0,North,-9999.0,-,N/A,,Haze,0,2012-11-14 03:40:00
11:10 AM,84.2,59.0,42,29.98,3.1,NNW,2.3,-,N/A,,Haze,330,2012-11-14 05:40:00
11:30 AM,83,65,44,29.94,2,NNE,3.5,,,,Haze,20,2012-11-14 06:00:00
12:10 PM,86.0,60.8,43,29.95,3.1,North,3.5,-,N/A,,Haze,10,2012-11-14 06:40:00
1:10 PM,87.8,53.6,31,29.92,3.1,NNW,2.3,-,N/A,,Haze,340,2012-11-14 07:40:00
2:10 PM,89.6,55.4,31,29.89,3.1,NE,3.5,-,N/A,,Haze,50,2012-11-14 08:40:00
2:30 PM,88,58,27,29.83,2,NE,4.6,,,,Haze,50,2012-11-14 09:00:00
4:10 PM,87.8,55.4,33,29.86,3.7,North,3.5,-,N/A,,Unknown,360,2012-11-14 10:40:00
5:10 PM,84.2,55.4,37,29.86,3.7,NNE,2.3,-,N/A,,Unknown,20,2012-11-14 11:40:00
5:30 PM,78,63,51,29.84,2,Calm,Calm,,,,Clear,,2012-11-14 12:00:00
6:10 PM,77.0,60.8,57,29.89,3.1,Calm,Calm,-,N/A,,Haze,0,2012-11-14 12:40:00
7:10 PM,73.4,57.2,57,29.89,-9999.0,North,-9999.0,-,N/A,,Haze,0,2012-11-14 13:40:00
8:10 PM,75.2,57.2,53,29.92,-9999.0,North,-9999.0,-,N/A,,Haze,0,2012-11-14 14:40:00
8:30 PM,67,60,73,29.92,1,Calm,Calm,,,,Haze,,2012-11-14 15:00:00
9:10 PM,73.4,55.4,53,29.95,2.5,NE,2.3,-,N/A,,Haze,40,2012-11-14 15:40:00
10:10 PM,71.6,53.6,53,29.95,-9999.0,North,-9999.0,-,N/A,,Haze,0,2012-11-14 16:40:00
11:10 PM,69.8,50.0,49,29.95,2.5,NE,2.3,-,N/A,,Haze,40,2012-11-14 17:40:00
11:30 PM,59,53,76,29.94,1,Calm,Calm,,,,Haze,,2012-11-14 18:00:00